www.pogodaiklimat.ru

Погода и климат >> Архив погоды >> Россия >> Якутия >> Белая Гора


ПОГОДА в Белой Горе

  • Прогноз погоды в Белой Горе
  • Монитор погоды в Белой Горе
  • Климат города

АРХИВ ПОГОДЫ в Белой Горе

Время (UTC), дата Ветер
(напр.,м/с)
 
Видим.   Явления Облачность Т
(С)
Тd
(С)
f
(%)
Тe
(С)
Тes
(С)
Комфортность P
(гПа)
Po
(гПа)
Тmin
(С)
Tmax
(С)
R
(мм)
R24
(мм)
S
(см)
09 17.05 В 2 н/о н/о -4.6 -6.4 87 -9 -9 1009.2 1003.5 -4.6
12 17.05 В 2 н/о н/о -4.0 -6.0 86 -8 -8 1008.2 1002.6
15 17.05 В 2 н/о н/о -4.2 -5.8 89 -8 -8 1006.8 1001.2
18 17.05 В 3 н/о н/о -4.5 -5.9 90 -10 -10 1006.5 1000.8
21 17.05 В 4 50 км 10/9 300 м
[St As op]
-4.5 -6.5 86 -11 -11 1005.3 1000.0 -4.6 3 45
00 18.05 В 4 50 км 8/0
[Ac trans]
-3.4 -6.6 78 -9 -7 1004.2 999.0
03 18.05 В 4 50 км 8/0
[Ac trans]
-3.4 -6.6 78 -9 -6 1004.2 999.0
06 18.05 СВ 4 50 км 10/8 600 м
[Sc Ac und]
-1.2 -5.9 70 -7 -6 1002.7 997.5
09 18.05 СВ 3 н/о н/о +1.9 -4.8 61 -2 -2 1001.1 995.6 +1.9
12 18.05 СВ 3 н/о н/о +0.3 -4.6 70 -4 -4 1000.9 995.4
15 18.05 СВ 3 н/о н/о -2.7 -4.8 85 -8 -8 1000.4 994.9
18 18.05 СВ 5 н/о н/о -3.2 -4.0 94 -10 -10 999.4 993.8
21 18.05 СВ 4 50 км {снег} 8/8 300 м
[St As op]
-2.1 -3.3 91 -8 -8 998.2 993.0 -3.2 0.0 44
00 19.05 СВ 3 50 км 5/5 300 м
[Cb cap]
+0.3 -3.0 78 -4 -1 997.5 992.4
03 19.05 В 2 50 км 4/0
[Ci fib]
+3.7 -1.6 68 +1 +10 опасность
простуды
997.6 992.5
06 19.05 З 1 50 км 5/0
[Ci fib]
+4.5 -1.2 66 +4 +10 998.0 993.0
09 19.05 ЮЗ 3 н/о н/о +1.6 -0.9 83 -3 -3 1000.1 994.6 +5.0
12 19.05 З 1 н/о н/о +1.1 -0.9 86 -1 -1 1001.3 995.8
15 19.05 С 3 н/о н/о 0.0 -2.0 86 -5 -5 1002.2 996.7
18 19.05 С 4 н/о н/о -1.0 -2.7 88 -7 -7 1002.7 997.2
21 19.05 С 4 н/о н/о -1.2 -3.3 86 -7 -7 1003.2 997.7 -1.3
00 20.05 С 3 н/о н/о -0.6 -2.7 86 -5 -5 1003.7 998.1 -1.3
03 20.05 С 5 н/о н/о -1.1 -2.6 90 -8 -8 1004.0 998.5
06 20.05 СЗ 4 н/о н/о -1.7 -3.1 90 -8 -8 1004.2 998.7
09 20.05 СЗ 4 н/о н/о -2.8 -3.0 99 -9 -9 1005.4 999.8 -0.2
12 20.05 СЗ 4 н/о н/о -3.3 -4.5 91 -10 -10 1006.0 1000.4
15 20.05 СЗ 4 н/о н/о -3.6 -4.7 92 -10 -10 1006.0 1000.4
18 20.05 СЗ 3 н/о н/о -4.4 -4.7 98 -10 -10 1006.3 1000.7
21 20.05 СЗ 3 н/о н/о -3.8 -4.6 94 -9 -9 1006.9 1001.3 -4.5
00 21.05 СЗ 4 н/о н/о -1.7 -4.2 83 -7 -7 1007.2 1001.7
03 21.05 СЗ 4 н/о н/о +0.6 -3.4 75 -5 -5 1007.4 1001.9
06 21.05 СЗ 5 н/о н/о +1.8 -2.9 71 -4 -4 1007.5 1002.0
09 21.05 СЗ 4 н/о н/о +1.2 -2.3 77 -4 -4 1008.7 1003.2 +2.0
12 21.05 С 5 н/о н/о -0.2 -2.6 84 -6 -6 1010.0 1004.4
15 21.05 С 4 н/о н/о -0.9 -2.6 88 -7 -7 1010.4 1004.9
18 21.05 СЗ 4 н/о н/о -1.2 -2.3 92 -7 -7 1010.7 1005.1
21 21.05 С 4 50 км 10/10 300 м
[Sc]
-0.2 -2.6 84 -6 -6 1010.6 1005.4 -1.2 38
00 22.05 СВ 3 50 км {дождь, снег} 10/8 600 м
[Sc Ac und]
+1.2 -2.9 74 -3 -3 1010.8 1005.6
03 22.05 СВ 3 50 км 10/8 600 м
[Sc As trans]
+1.2 -2.4 77 -3 -2 1011.5 1006.3
06 22.05 С 2 50 км 10/8 600 м
[Sc As trans]
+1.6 -2.5 74 -2 -1 1012.2 1007.0
09 22.05 СЗ 3 н/о н/о +1.5 -2.3 76 -3 -3 1013.7 1008.1 +1.9
12 22.05 СЗ 2 н/о н/о +0.8 -2.1 81 -3 -3 1014.4 1008.8
15 22.05 СЗ 2 н/о н/о 0.0 -2.3 84 -4 -4 1014.7 1009.1
18 22.05 С 2 н/о н/о -0.6 -1.5 94 -4 -4 1015.2 1009.6
21 22.05 С 2 50 км 8/0
[Ac As]
-0.2 -1.4 92 -4 -2 1015.4 1010.2 -0.6 0.0 33
00 23.05 СЗ 1 50 км 10/8 600 м
[Sc Ac und]
+1.0 -3.2 74 -1 0 1015.9 1010.7
03 23.05 СЗ 1 50 км 10/8 600 м
[Sc Ac und]
+2.5 -3.1 67 +1 +2 1015.7 1010.5
06 23.05 СЗ 1 50 км 10/8 600 м
[Sc Ac und]
+2.2 -3.1 68 +1 +1 1015.7 1010.5
09 23.05 СВ 1 н/о н/о +2.4 -2.8 69 +1 +1 1016.3 1010.8 +2.8
12 23.05 В 3 н/о н/о +1.2 -2.4 77 -3 -3 1016.2 1010.6
15 23.05 В 2 н/о н/о -0.4 -2.6 85 -4 -4 1015.9 1010.3
18 23.05 В 3 н/о н/о -1.4 -3.2 88 -6 -6 1015.1 1009.5
21 23.05 СВ 3 50 км 5/0
[Cs]
+1.4 -2.7 74 -3 0 1014.4 1009.2 -1.4 25
00 24.05 ЮВ 2 50 км ясно +4.8 -2.8 58 +3 +11 опасность
простуды
1012.8 1007.7
03 24.05 Ю 3 50 км ясно +6.2 -2.7 53 +4 +12 1011.5 1006.4

 

Местоположение метеостанции Белая Гора (Якутия, Россия): широта 68.55 долгота 146.20 высота над уровнем моря 41 м.

В архиве по умолчанию представлена погода в Белой Горе за последнюю неделю. Архивные данные за месяц целиком и за предыдущие месяцы, начиная с января 2011 года, Вы можете получить, выбрав интересующий диапазон дат из раскрывающегося списка и нажав кнопку "Ввод!".

Внимание! Время в таблицах - всемирное. Для получения местного времени необходимо прибавить поправку, которая в Белой Горе равна 11 ч.

Смотрите также архив погоды в соседних городах и на ближайших метеорологических станциях:

Погода в Чокурдахе (Якутия, Россия) (238 км)
Погода в Усть-Моме (Якутия, Россия) (266 км)
Погода в Депутатском (Якутия, Россия) (272 км)
Погода в Среднеколымске (Якутия, Россия) (335 км)
Погода в Андрюшкино (Якутия, Россия) (340 км)
Погода в Зырянке (Якутия, Россия) (373 км)
Погода в Усть-Куйге (Якутия, Россия) (447 км)
Погода в Усть-Чарках (Якутия, Россия) (449 км)
Погода в Юбилейной (Якутия, Россия) (458 км)
Погода в Усть-Нере (Якутия, Россия) (468 км)

Пояснения к столбцам:

Ветер - указаны скорость ветра в м/с - средняя за 10 мин, порывы в срок и между сроками (в фигурных скобках) и направление, откуда дует ветер: С - северный, СВ - северо-восточный, В - восточный, ЮВ - юго-восточный, Ю - южный, ЮЗ - юго-западный, З - западный, СЗ - северо-западный.
Видимость - горизонтальная дальность видимости в метрах или километрах. При видимости от 1 до 10 км при отсутствии осадков обычно наблюдается дымка, при ухудшении видимости до 1 км и менее - туман. В сухую погоду видимость может ухудшаться дымом, пылью или мглою.
Явления - указаны атмосферные явления, наблюдавшиеся в срок или в последний час перед сроком; фигурными скобками обозначены явления, наблюдавшиеся между сроками (за 1-3 часа до срока); квадратными скобками обозначены град или гололедные отложения с указанием их диаметра в мм.
Облачность - указаны через наклонную черту общая и нижняя облачность в баллах и высота нижней границы облаков в метрах; квадратными скобками обозначены формы облаков: Ci - перистые, Cs - перисто-слоистые, Cc - перисто-кучевые, Ac - высококучевые, As - высокослоистые, Sc - слоисто-кучевые, Ns - слоисто-дождевые, Cu - кучевые, Cb - кучево-дождевые. Подробнее классификацию облаков см. в Атласе облаков (PDF).
T - Температура воздуха - температура, измеренная на высоте 2 м над землей.
Td - Температура точки росы - температура, при понижении до которой содержащийся в воздухе водяной пар достигнет насыщения.
f - Относительная влажность воздуха - влажноcть воздуха, измеренная на высоте 2 м над землей.
Te - Эффективная температура - температура, которую ощущает одетый по сезону человек в тени. Характеристика душности погоды. При расчете учитывается влияние влажности воздуха и скорости ветра на теплоощущения человека.
Tes - Эффективная температура на солнце - температура, которую ощущает человек, с поправкой на солнечный нагрев. Характеристика знойности погоды. Зависит от высоты солнца над горизонтом, облачности и скорости ветра. Ночью, в пасмурную погоду, а также при ветре 12 м/с и более поправка равна нулю.
P - Атмосферное давление - приведенное к уровню моря атмосферное давление.
Po - Атмосферное давление - измеренное на уровне метеостанции атмосферное давление.
Tmin - Минимальная температура - минимум температуры воздуха на высоте 2 м над землей.
Tmax - Максимальная температура - максимум температуры воздуха на высоте 2 м над землей.
R - Количество осадков - Количество выпавших осадков за период времени, мм. При наведении курсора мыши на число - период времени, за который выпало указанное количество осадков.
R24 - Количество осадков - Количество выпавших осадков за 24 часа, мм.
S - Снежный покров - Высота снежного покрова, см. При наведении курсора мыши на число - состояние снежного покрова и степень покрытия местности в баллах.